Location: *
(45.5667°S, 177.5167°W)
Time: 22:11:22
(UTC+00:00)

Cosmos 2084 - Pass Details

Date: 29 May 2022
Orbit: 507 x 671 km, 62.8° (Epoch: 24 June)

Event Time Altitude Azimuth Distance (km) Brightness Sun altitude
Rises 06:08:01 0° 327° (NNW) 3,005 7.8 -18.7°
Reaches altitude 10° 06:10:19 10° 328° (NNW) 2,107 6.9 -19.1°
Maximum altitude 06:15:09 78° 53° (NE) 702 3.6 -20.0°
Enters shadow 06:16:47 42° 131° (SE) 973 4.1 -20.3°
